Diboll, TX

11:10 AM CDT on July 27, 2016 (GMT -0500)
Angelina County

Weather History for KLFK - March, 2015

Change the Weather History Date:

Saturday, March 7, 2015

  Actual Average Record
Temperature  
Mean Temperature 47 °F 58 °F  
Max Temperature 64 °F 69 °F 89 °F (1911)
Min Temperature 29 °F 46 °F 24 °F (1943)
Degree Days  
Heating Degree Days 18 9  
Month to date heating degree days 100 65  
Since 1 July heating degree days 1620 1699  
Cooling Degree Days 0 1  
Month to date cooling degree days 0 7  
Year to date cooling degree days 6 26  
Moisture  
Dew Point 29 °F    
Average Humidity 53    
Maximum Humidity 85    
Minimum Humidity 20    
Precipitation  
Precipitation 0.00 in 0.13 in 4.13 in (1995)
Month to date precipitation 0.42 0.93  
Year to date precipitation 9.16 8.98  
Snow  
Snow 0.00 in - - ()
Month to date snowfall 0.0  
Since 1 July snowfall T  
Snow Depth 0.00 in    
Sea Level Pressure  
Sea Level Pressure 30.41 in    
Wind  
Wind Speed 1 mph (East)    
Max Wind Speed 9 mph    
Max Gust Speed 11 mph    
Visibility 9 miles    
Events      
T = Trace of Precipitation, MM = Missing Value Source: NWS Daily Summary

Daily Weather History Graph

Daily Weather History Graph

Search for Another Location

Airport or City:

Trip Planner

Search our weather history database for the weather conditions in past years. The results will help you decide how hot, cold, wet, or windy it might be!

Date:

Astronomy

Mar. 07, 2015 Rise Set
Actual Time 6:39 AM CST 6:21 PM CST
Civil Twilight 6:14 AM CST 6:45 PM CST
Nautical Twilight 5:46 AM CST 7:13 PM CST
Astronomical Twilight 5:18 AM CST 7:41 PM CST
Moon 8:15 PM CST (3/7) 7:34 AM CST (3/7)
Length of Visible Light 12h 30m
Length of Day
11h 42m
Waning Gibbous, 96% of the Moon is Illuminated
Mar 7
Waning Gibbous
Mar 13
Last Quarter
Mar 20
New
Mar 27
First Quarter
Apr 4
Full

Hourly Weather History & Observations

Time (CST) Temp. Dew Point Humidity Pressure Visibility Wind Dir Wind Speed Gust Speed Precip Events Conditions
12:53 AM 33.1 °F 27.0 °F 78% 30.48 in 10.0 mi Calm Calm - N/A   Clear
1:53 AM 30.9 °F 26.1 °F 82% 30.46 in 9.0 mi Calm Calm - N/A   Clear
2:53 AM 30.0 °F 25.0 °F 82% 30.46 in 9.0 mi Calm Calm - N/A   Clear
3:53 AM 30.0 °F 25.0 °F 82% 30.47 in 8.0 mi Calm Calm - N/A   Clear
4:53 AM 28.9 °F 24.1 °F 82% 30.46 in 7.0 mi Calm Calm - N/A   Clear
5:53 AM 30.0 °F 25.0 °F 82% 30.46 in 7.0 mi Calm Calm - N/A   Clear
6:53 AM 30.9 °F 26.1 °F 82% 30.49 in 5.0 mi Calm Calm - N/A   Haze
7:53 AM 36.0 °F 30.9 °F 82% 30.48 in 8.0 mi Calm Calm - N/A   Clear
8:53 AM 44.6 °F 33.8 °F 66% 30.49 in 10.0 mi Calm Calm - N/A   Clear
9:53 AM 48.0 °F 28.9 °F 48% 30.52 in 10.0 mi Calm Calm - N/A   Mostly Cloudy
10:53 AM 53.1 °F 26.1 °F 35% 30.50 in 10.0 mi Calm Calm - N/A   Partly Cloudy
11:53 AM 57.9 °F 24.1 °F 27% 30.47 in 10.0 mi Calm Calm - N/A   Partly Cloudy
12:53 PM 63.0 °F 24.1 °F 23% 30.41 in 10.0 mi Variable 4.6 mph - N/A   Partly Cloudy
1:53 PM 62.6 °F 21.2 °F 20% 30.38 in 10.0 mi Calm Calm - N/A   Overcast
2:53 PM 63.0 °F 26.1 °F 25% 30.36 in 10.0 mi ESE 5.8 mph - N/A   Overcast
3:53 PM 63.0 °F 27.0 °F 26% 30.34 in 10.0 mi Variable 5.8 mph - N/A   Overcast
4:53 PM 61.0 °F 28.0 °F 29% 30.33 in 10.0 mi East 4.6 mph - N/A   Overcast
5:53 PM 61.0 °F 30.0 °F 31% 30.34 in 10.0 mi Calm Calm - N/A   Overcast
6:53 PM 57.0 °F 37.9 °F 49% 30.32 in 10.0 mi East 3.5 mph - N/A   Overcast
7:53 PM 57.0 °F 34.0 °F 42% 30.32 in 10.0 mi Calm Calm - N/A   Overcast
8:53 PM 55.9 °F 36.0 °F 47% 30.33 in 10.0 mi Calm Calm - N/A   Overcast
9:53 PM 55.9 °F 33.1 °F 42% 30.33 in 10.0 mi Calm Calm - N/A   Overcast
10:53 PM 55.9 °F 32.0 °F 40% 30.32 in 10.0 mi Calm Calm - N/A   Overcast
11:53 PM 54.0 °F 39.0 °F 57% 30.31 in 10.0 mi Calm Calm - N/A   Overcast